Погода в Антонове

Украина / Киевская область     49°37′55″N   29°45′42″E
темп.,
°C
ветер,
м/с
пор.,
м/с
влажн.,
%
обл.,
%
осадки,
мм/ч
давл.,
гПа
погр.,
м
24 июля, сб
сб2400:00+16ссз237410 0.0 101527
03:00+16сз3472100 0.0 101676
06:00+17сз2269100 0.0 101538
09:00+19ссз2476100 0.0 1016168
12:00+21сз2266100 0.0 1017397
15:00+24зсз344850 0.0 10162049
18:00+21ссз336399 0.0 101784
21:00+20сз2262100 0.0 101712
25 июля, вс
вс2500:00+19ссз0066100 0.0 101811
03:00+19зсз1166100 0.0 101811
06:00+19з1169100 0.0 101911
09:00+20юв0072100 0.0 101960
12:00+23юв225675 0.0 1020606
15:00+25ююв124797 0.0 10191978
18:00+23ююв1161100 0.0 101912
21:00+21юв2257100 0.0 102012
26 июля, пн
пн2600:00+20юв225698 0.0 102019
03:00+20в2254100 0.0 102032
06:00+19юв3559100 0.0 102181
09:00+22ююв356350 0.0 1021238
12:00+22ююв256799 0.0 1022211
15:00+27юв344621 0.0 10211315
18:00+26юв23496 0.0 10201012
21:00+20вюв34735 0.0 102048
27 июля, вт
вт2700:00+19юв36685 0.0 102187
03:00+20вюв376499 0.0 1021150
06:00+17юв35755 0.0 102185
09:00+23ююв58625 0.0 1020352
12:00+27ююв67515 0.0 10201096
15:00+28ююв67475 0.0 10191769
18:00+27ююв575582 0.0 1019817
21:00+22юв4106774 0.0 1018159
28 июля, ср
ср2800:00+21юв5146110 0.0 1018276
03:00+20ююв51560100 0.1 1017331
06:00+20ююв61553100 0.1 1015314
09:00+22ююв5137299 0.6 1015463
12:00+27ю7957100 0.2 1013870
15:00+28ююз7955100 0.2 10121153
18:00+30ююз585991 0.0 10111036
21:00+19юв5993100 10.2 1011198